Weather reports worldwide

Advertisment
Houston, tx, United States of America (2072868): temperature & dewpoint: 07.12.2019 22:00:00 - 13.12.2019 22:00:00 (CST)Houston, tx, United States of America (2072868): wind speed & gusts: 07.12.2019 22:00:00 - 13.12.2019 22:00:00 (CST)Houston, tx, United States of America (2072868): wind direction: 07.12.2019 22:00:00 - 13.12.2019 22:00:00 (CST)Houston, tx, United States of America (2072868): reduced air pressure: 07.12.2019 22:00:00 - 13.12.2019 22:00:00 (CST)Houston, tx, United States of America (2072868): visibility: 07.12.2019 22:00:00 - 13.12.2019 22:00:00 (CST)Houston, tx, United States of America (2072868): precipitation: 07.12.2019 22:00:00 - 13.12.2019 22:00:00 (CST)
Date & Time tt [°C] td [°C] ff [km/h] ff [kn] fx [km/h] fx [kn] dd ppp [hPa] vv [km] rr [mm]
13.12.2019 22:00:00 12,8 9,4 0 0 - - N 1011,3 16 -
13.12.2019 21:00:00 15,0 9,4 0 0 - - N 1011,2 16 -
13.12.2019 20:00:00 16,7 10,0 5 3 - - NNW 1010,5 16 -
13.12.2019 19:00:00 18,9 9,4 5 3 - - WNW 1010,4 16 -
13.12.2019 18:00:00 21,1 9,4 9 5 - - W 1009,5 16 -
13.12.2019 17:00:00 22,8 10,0 11 6 - - W 1009,0 16 -
13.12.2019 16:00:00 23,9 10,6 15 8 - - W 1009,1 16 -
13.12.2019 15:00:00 23,9 10,6 18 10 - - WSW 1009,3 16 -
13.12.2019 14:00:00 23,9 12,2 13 7 - - WSW 1009,8 16 -
13.12.2019 13:00:00 22,8 13,9 13 7 - - SW 1010,9 16 -
13.12.2019 12:00:00 21,7 15,0 16 9 - - SW 1013,2 16 -
13.12.2019 11:00:00 21,1 15,0 15 8 - - SW 1013,3 16 -
13.12.2019 10:00:00 20,0 14,4 8 4 - - - 1015,3 15 -
13.12.2019 09:00:00 16,7 12,8 0 0 - - N 1015,4 15 -
13.12.2019 08:00:00 14,4 11,7 0 0 - - N 1015,4 13 -
13.12.2019 07:00:00 13,9 11,7 5 3 - - NW 1015,2 15 -
13.12.2019 06:00:00 13,9 11,7 0 0 - - N 1015,1 16 -
13.12.2019 05:00:00 15,0 11,7 0 0 - - N 1015,3 16 -
13.12.2019 04:00:00 14,4 11,1 5 3 - - SSE 1016,0 16 -
13.12.2019 03:00:00 13,9 11,1 5 3 - - E 1017,0 15 -
13.12.2019 02:00:00 14,4 11,1 0 0 - - N 1017,8 16 -
13.12.2019 01:00:00 13,3 10,0 0 0 - - N 1018,4 16 -
13.12.2019 00:00:00 13,3 10,0 0 0 - - N 1018,6 16 -
12.12.2019 23:00:00 13,3 10,0 0 0 - - N 1019,2 16 -
12.12.2019 22:00:00 13,3 9,4 0 0 - - N 1019,8 16 -
12.12.2019 21:00:00 11,7 8,9 0 0 - - N 1020,3 16 -
12.12.2019 20:00:00 11,7 8,3 0 0 - - N 1020,2 16 -
12.12.2019 19:00:00 13,3 8,9 0 0 - - N 1020,0 16 -
12.12.2019 18:00:00 14,4 8,9 0 0 - - N 1020,2 16 -
12.12.2019 17:00:00 16,1 7,8 9 5 - - E 1020,7 16 -
12.12.2019 16:00:00 17,2 8,3 9 5 - - ENE 1021,0 16 -
12.12.2019 15:00:00 17,2 8,9 11 6 - - NE 1021,7 16 -
12.12.2019 14:00:00 17,2 8,9 11 6 - - E 1022,5 16 -
12.12.2019 13:00:00 16,1 8,9 8 4 - - E 1023,6 16 -
12.12.2019 12:00:00 16,1 8,3 11 6 - - ESE 1024,8 16 -
12.12.2019 11:00:00 13,9 7,2 9 5 - - E 1025,9 16 -
12.12.2019 10:00:00 12,8 6,1 18 10 - - ENE 1026,2 16 -
12.12.2019 09:00:00 11,1 5,6 16 9 - - E 1026,0 16 -
12.12.2019 08:00:00 9,4 5,0 15 8 - - E 1026,0 16 -
12.12.2019 07:00:00 7,8 3,9 9 5 - - ENE 1025,9 16 -
12.12.2019 06:00:00 8,3 3,9 9 5 - - E 1026,2 16 -
12.12.2019 05:00:00 9,4 3,9 9 5 - - NE 1026,7 16 -
12.12.2019 04:00:00 8,9 3,3 11 6 - - NE 1027,4 16 -
12.12.2019 03:00:00 8,9 3,3 11 6 - - NE 1028,2 16 -
12.12.2019 02:00:00 8,3 3,3 13 7 - - NE 1028,6 16 -
12.12.2019 01:00:00 7,2 2,2 8 4 - - NNE 1029,1 16 -
12.12.2019 00:00:00 7,8 2,2 5 3 - - NNE 1029,5 16 -
11.12.2019 23:00:00 8,3 2,2 8 4 - - NNE 1030,1 16 -
11.12.2019 22:00:00 8,9 2,2 8 4 - - NE 1030,1 16 -
11.12.2019 21:00:00 10,0 2,2 9 5 - - ENE 1030,1 16 -
11.12.2019 20:00:00 10,6 2,2 8 4 - - NE 1030,0 16 -
11.12.2019 19:00:00 11,1 2,2 9 5 - - NE 1029,9 16 -
11.12.2019 18:00:00 12,2 1,1 9 5 - - NE 1029,3 16 -
11.12.2019 17:00:00 15,0 0,6 15 8 - - NE 1029,2 16 -
11.12.2019 16:00:00 16,1 0,0 16 9 - - NE 1029,5 16 -
11.12.2019 15:00:00 16,1 0,6 15 8 - - NE 1029,9 16 -
11.12.2019 14:00:00 15,6 1,1 18 10 - - NE 1030,1 16 -
11.12.2019 13:00:00 13,9 1,7 18 10 - - NE 1031,1 16 -
11.12.2019 12:00:00 12,8 1,7 16 9 - - NE 1032,5 16 -
11.12.2019 11:00:00 11,1 2,8 15 8 - - NNE 1033,2 16 -
11.12.2019 10:00:00 9,4 2,8 24 13 - - NNE 1033,5 16 -
11.12.2019 09:00:00 8,9 2,8 18 10 - - N 1033,1 16 -
11.12.2019 08:00:00 7,2 2,8 15 8 - - NE 1032,9 16 -
11.12.2019 07:00:00 7,8 3,3 16 9 - - NNE 1031,9 16 -
11.12.2019 06:00:00 7,8 3,9 22 12 - - NE 1030,9 16 -
11.12.2019 05:00:00 7,8 4,4 18 10 - - N 1030,2 16 -
11.12.2019 04:00:00 8,3 4,4 21 11 - - NNE 1030,1 16 -
11.12.2019 03:00:00 8,3 4,4 24 13 - - NNE 1029,7 16 -
11.12.2019 02:00:00 8,3 5,0 21 11 - - NNE 1029,7 16 -
11.12.2019 01:00:00 8,9 5,0 21 11 - - NNE 1029,4 16 -
11.12.2019 00:00:00 9,4 5,0 22 12 - - NNE 1029,0 16 -
10.12.2019 23:00:00 10,0 5,6 26 14 - - NNE 1028,8 16 -
10.12.2019 22:00:00 10,0 5,6 28 15 - - NNE 1028,3 16 -
10.12.2019 21:00:00 10,6 6,7 21 11 - - N 1027,5 16 -
10.12.2019 20:00:00 10,6 6,7 16 9 - - N 1026,7 16 -
10.12.2019 19:00:00 11,1 7,2 16 9 - - NNE 1025,4 16 -
10.12.2019 18:00:00 11,1 7,2 28 15 - - NNE 1024,1 16 -
10.12.2019 17:00:00 11,1 8,3 24 13 - - NNE 1023,2 16 0,0
10.12.2019 16:00:00 11,1 8,3 28 15 - - NNE 1022,7 10 0,3
10.12.2019 15:00:00 11,7 8,9 26 14 - - NNE 1021,6 15 0,0
10.12.2019 14:00:00 11,7 8,9 22 12 50 27 NNE 1021,2 16 0,0
10.12.2019 13:00:00 11,7 8,9 29 16 - - N 1021,3 10 0,0
10.12.2019 12:00:00 12,2 9,4 28 15 50 27 NNE 1020,9 16 0,0
10.12.2019 11:00:00 12,2 9,4 31 17 48 26 NNE 1020,5 16 0,0
10.12.2019 10:00:00 11,7 10,0 24 13 - - NNE 1020,5 8 0,0
10.12.2019 09:00:00 12,2 10,0 22 12 - - N 1019,7 3,2 0,8
10.12.2019 08:00:00 12,8 10,6 24 13 48 26 N 1018,3 4,8 3,0
10.12.2019 07:00:00 13,9 10,0 31 17 48 26 N 1016,6 15 0,0
10.12.2019 06:00:00 15,0 11,7 28 15 - - N 1015,9 16 0,0
10.12.2019 05:00:00 15,6 13,3 28 15 - - NNE 1014,3 16 0,8
10.12.2019 04:00:00 16,1 13,9 29 16 - - N 1014,0 13 0,8
10.12.2019 03:00:00 20,6 18,9 21 11 - - NNW 1012,5 11 0,0
10.12.2019 02:00:00 22,2 20,6 5 3 - - S 1012,6 10 2,0
10.12.2019 01:00:00 22,2 20,6 0 0 - - N 1012,6 8 0,3
10.12.2019 00:00:00 21,7 20,0 0 0 - - N 1012,6 10 0,0
09.12.2019 23:00:00 22,2 20,0 0 0 - - N 1012,7 11 -
09.12.2019 22:00:00 22,2 20,6 0 0 - - N 1012,1 10 -
09.12.2019 21:00:00 22,8 20,6 9 5 - - SE 1011,7 13 -
09.12.2019 20:00:00 22,8 20,6 9 5 - - SE 1011,7 13 -
09.12.2019 19:00:00 23,9 20,6 8 4 - - SE 1011,5 16 -
09.12.2019 18:00:00 25,0 19,4 9 5 - - S 1010,8 16 -
09.12.2019 17:00:00 26,1 18,9 13 7 - - S 1010,3 16 -
09.12.2019 16:00:00 27,2 17,8 15 8 - - SSW 1009,9 16 -
09.12.2019 15:00:00 27,8 17,8 16 9 - - SSW 1009,9 16 -
09.12.2019 14:00:00 28,3 17,8 18 10 - - SSW 1009,9 16 -
09.12.2019 13:00:00 28,3 17,8 22 12 - - SW 1010,5 16 -
09.12.2019 12:00:00 26,7 18,3 21 11 - - SW 1011,7 16 -
09.12.2019 11:00:00 26,1 20,0 16 9 - - SSW 1012,5 15 -
09.12.2019 10:00:00 23,9 20,6 11 6 - - SSW 1012,9 10 -
09.12.2019 09:00:00 21,7 20,0 9 5 - - S 1012,8 6 -
09.12.2019 08:00:00 20,0 18,9 8 4 - - S 1012,3 3,2 -
09.12.2019 07:00:00 19,4 18,3 0 0 - - N 1012,0 1,2 -
09.12.2019 06:00:00 20,0 18,9 0 0 - - N 1011,6 8 -
09.12.2019 05:00:00 20,0 18,3 11 6 - - S 1011,4 10 -
09.12.2019 04:00:00 20,0 17,8 9 5 - - S 1011,4 11 -
09.12.2019 03:00:00 20,0 17,8 9 5 - - S 1011,8 13 -
09.12.2019 02:00:00 20,0 17,2 11 6 - - S 1012,4 15 -
09.12.2019 01:00:00 20,6 17,2 9 5 - - S 1012,9 16 -
09.12.2019 00:00:00 19,4 17,2 13 7 - - S 1013,0 15 -
08.12.2019 23:00:00 18,3 16,1 0 0 - - N 1013,8 15 -
08.12.2019 22:00:00 18,3 16,1 9 5 - - S 1013,5 11 -
08.12.2019 21:00:00 18,3 16,7 9 5 - - SSE 1013,7 11 -
08.12.2019 20:00:00 18,9 16,7 9 5 - - SSE 1013,9 13 -
08.12.2019 19:00:00 19,4 15,6 8 4 - - SSE 1014,5 15 -
08.12.2019 18:00:00 20,6 15,6 9 5 - - SSE 1014,6 16 -
08.12.2019 17:00:00 21,7 15,6 13 7 - - SSE 1014,8 16 -
08.12.2019 16:00:00 22,8 15,6 15 8 - - S 1014,8 16 -
08.12.2019 15:00:00 22,8 15,0 16 9 - - S 1015,3 16 -
08.12.2019 14:00:00 23,3 14,4 21 11 - - S 1015,8 16 -
08.12.2019 13:00:00 22,8 13,9 13 7 - - S 1017,3 16 -
08.12.2019 12:00:00 21,7 13,9 13 7 - - S 1018,4 16 -
08.12.2019 11:00:00 20,6 13,9 16 9 - - SE 1019,3 16 -
08.12.2019 10:00:00 18,3 14,4 11 6 - - ESE 1020,2 13 -
08.12.2019 09:00:00 15,0 13,3 9 5 - - E 1019,7 4,8 -
08.12.2019 08:00:00 13,9 12,8 5 3 - - ENE 1019,5 4,0 -
08.12.2019 07:00:00 9,4 7,8 0 0 - - N 1019,4 8 -
08.12.2019 06:00:00 8,9 7,8 0 0 - - N 1019,5 4,8 -
08.12.2019 05:00:00 9,4 8,3 0 0 - - N 1019,4 0,4 -
08.12.2019 04:00:00 9,4 8,3 0 0 - - N 1020,4 0,4 -
08.12.2019 03:00:00 9,4 8,3 0 0 - - N 1020,8 0,4 -
08.12.2019 02:00:00 10,0 8,3 0 0 - - N 1020,8 1,2 -
08.12.2019 01:00:00 10,0 8,9 0 0 - - N 1021,3 0,4 -
08.12.2019 00:00:00 10,0 8,3 0 0 - - N 1021,5 1,2 -
07.12.2019 23:00:00 11,7 8,9 0 0 - - N 1022,2 13 -
07.12.2019 22:00:00 12,2 9,4 0 0 - - N 1022,3 15 -

tt = temperature
td = dewpoint
ff = wind speed
fx = gusts
dd = wind direction
ppp = reduced air pressure
vv = visibility
rr = precipitation

Next stations